Mayo, Yukon Territory

7:54 PM PST on February 05, 2016 (GMT -0800)
Mayo

Weather History for CYMA - July, 2013

Change the Weather History Date:

Wednesday, July 31, 2013

  Actual Average Record
Temperature  
Mean Temperature 66 °F -  
Max Temperature 82 °F 67 °F 82 °F (2013)
Min Temperature 50 °F 43 °F 32 °F (2014)
Cooling Degree Days 1    
Growing Degree Days 16 (Base 50)    
Moisture  
Dew Point 51 °F    
Average Humidity 65    
Maximum Humidity 82    
Minimum Humidity 34    
Precipitation  
Precipitation 0.00 in 0.06 in - ()
Sea Level Pressure  
Sea Level Pressure 30.11 in    
Wind  
Wind Speed 1 mph ()    
Max Wind Speed 12 mph    
Max Gust Speed 17 mph    
Visibility 20.0 miles    
Events Rain , Thunderstorm    
Averages and records for this station are not official NWS values.
T = Trace of Precipitation, MM = Missing Value Source: Averaged Metar Reports

Daily Weather History Graph

Daily Weather History Graph

Search for Another Location

Airport or City:

Trip Planner

Search our weather history database for the weather conditions in past years. The results will help you decide how hot, cold, wet, or windy it might be!

Date:

Astronomy

Jul. 31, 2013 Rise Set
Actual Time 5:13 AM PDT 11:03 PM PDT
Civil Twilight 3:48 AM PDT 12:26 AM PDT
Nautical Twilight Sun does not rise Sun does not rise
Astronomical Twilight Sun does not rise Sun does not rise
Moon 12:17 AM PDT (7/31) 6:35 PM PDT (7/31)
Length of Visible Light 20h 38m
Length of Day
17h 50m
Waning Crescent, 31% of the Moon is Illuminated
Jul 31
Waning Crescent
Aug 6
New
Aug 14
First Quarter
Aug 20
Full
Aug 28
Last Quarter

Hourly Weather History & Observations

Time (PDT) Temp. Dew Point Humidity Pressure Visibility Wind Dir Wind Speed Gust Speed Precip Events Conditions
12:00 AM 60.8 °F 48.2 °F 63% 30.10 in 20.0 mi Calm Calm - N/A   Partly Cloudy
1:00 AM 57.2 °F 46.4 °F 67% 30.11 in 20.0 mi Calm Calm - N/A   Partly Cloudy
2:00 AM 53.6 °F 46.4 °F 77% 30.13 in 20.0 mi Calm Calm - N/A   Partly Cloudy
3:00 AM 55.4 °F 46.4 °F 72% 30.14 in 20.0 mi Calm Calm - N/A   Partly Cloudy
4:00 AM 53.6 °F 44.6 °F 72% 30.14 in 20.0 mi Calm Calm - N/A   Partly Cloudy
5:00 AM 50.0 °F 44.6 °F 82% 30.15 in 20.0 mi Calm Calm - N/A   Partly Cloudy
6:00 AM 53.6 °F 46.4 °F 77% 30.16 in 20.0 mi Calm Calm - N/A   Partly Cloudy
7:00 AM 55.4 °F 48.2 °F 77% 30.16 in 20.0 mi Calm Calm - N/A   Partly Cloudy
8:00 AM 59.0 °F 50.0 °F 72% 30.16 in 20.0 mi Calm Calm - N/A   Partly Cloudy
9:00 AM 60.8 °F 50.0 °F 68% 30.15 in 20.0 mi Calm Calm - N/A   Partly Cloudy
10:00 AM 66.2 °F 48.2 °F 52% 30.15 in 20.0 mi Calm Calm - N/A   Mostly Cloudy
11:00 AM 69.8 °F 48.2 °F 46% 30.13 in 20.0 mi Calm Calm - N/A   Mostly Cloudy
12:00 PM 71.6 °F 50.0 °F 46% 30.12 in 20.0 mi Calm Calm - N/A   Mostly Cloudy
1:00 PM 77.0 °F 51.8 °F 41% 30.10 in 20.0 mi SSE 5.8 mph - N/A   Mostly Cloudy
1:54 PM - - N/A% - 20.0 mi Calm Calm - N/A Thunderstorm Thunderstorm
2:00 PM 82.4 °F 51.8 °F 35% 30.07 in 20.0 mi WSW 3.5 mph - N/A Thunderstorm Thunderstorm
3:00 PM 78.8 °F 48.2 °F 34% 30.06 in 20.0 mi North 11.5 mph 17.3 mph N/A Thunderstorm Thunderstorm
3:12 PM - - N/A% - 20.0 mi North 11.5 mph - N/A Rain , Thunderstorm Light Thunderstorms and Rain
4:00 PM 68.0 °F 59.0 °F 73% 30.09 in 20.0 mi ENE 8.1 mph - N/A Rain , Thunderstorm Light Thunderstorms and Rain
4:13 PM - - N/A% - 20.0 mi ESE 5.8 mph - N/A   Overcast
5:00 PM 68.0 °F 59.0 °F 73% 30.10 in 20.0 mi Calm Calm - N/A   Overcast
6:00 PM 66.2 °F 59.0 °F 78% 30.10 in 20.0 mi Calm Calm - N/A   Overcast
7:00 PM 71.6 °F 59.0 °F 64% 30.09 in 20.0 mi Calm Calm - N/A   Mostly Cloudy
8:00 PM 68.0 °F 59.0 °F 73% 30.08 in 20.0 mi Calm Calm - N/A   Mostly Cloudy
9:00 PM 68.0 °F 57.2 °F 68% 30.06 in 20.0 mi Calm Calm - N/A   Mostly Cloudy
10:00 PM 66.2 °F 57.2 °F 73% 30.06 in 20.0 mi Calm Calm - N/A   Mostly Cloudy
11:00 PM 64.4 °F 57.2 °F 77% 30.06 in 20.0 mi Calm Calm - N/A Thunderstorm Thunderstorm